| time (UTC) | temp C | wind direction | speed KPH | gust KPH | rain 1hr cm | rain 24hr cm | rain mn cm | humidity % | barometer mb |
| 20260504130605 | 16 | 285 | 16.1 | 32.2 | 0.00 | 0.00 | 0.00 | 42 | 1013.7 |
| 20260504130105 | 15 | 316 | 8.0 | 27.4 | 0.00 | 0.00 | 0.00 | 44 | 1013.9 |
| 20260504120105 | 13 | 283 | 4.8 | 19.3 | 0.00 | 0.00 | 0.00 | 51 | 1014.1 |
| 20260504110605 | 10 | 299 | 6.4 | 14.5 | 0.00 | 0.00 | 0.00 | 58 | 1014.1 |
| 20260504110106 | 10 | 298 | 3.2 | 4.8 | 0.00 | 0.00 | 0.00 | 59 | 1014.2 |
| 20260504100604 | 9 | 306 | 4.8 | 12.9 | 0.00 | 0.00 | 0.00 | 58 | 1014.0 |
| 20260504100105 | 9 | 294 | 4.8 | 12.9 | 0.00 | 0.00 | 0.00 | 58 | 1013.9 |
| 20260504090105 | 9 | 294 | 8.0 | 16.1 | 0.00 | 0.00 | 0.00 | 59 | 1013.9 |
| 20260504081605 | 7 | 305 | 0.0 | 0.0 | 0.00 | 0.00 | 0.00 | 70 | 1013.7 |
| 20260504080605 | 5 | 283 | 0.0 | 0.0 | 0.00 | 0.00 | 0.00 | 77 | 1013.8 |
| 20260504080105 | 5 | 293 | 0.0 | 0.0 | 0.00 | 0.00 | 0.00 | 78 | 1013.8 |
| 20260504070106 | 6 | 307 | 0.0 | 0.0 | 0.00 | 0.00 | 0.00 | 70 | 1013.8 |
| 20260504060105 | 5 | 284 | 0.0 | 0.0 | 0.00 | 0.00 | 0.00 | 78 | 1013.5 |
| 20260504050604 | 5 | 337 | 0.0 | 0.0 | 0.00 | 0.00 | 0.00 | 76 | 1013.5 |
| 20260504045605 | 5 | 337 | 0.0 | 0.0 | 0.00 | 0.00 | 0.00 | 75 | 1013.5 |
| 20260504045105 | 5 | 337 | 0.0 | 0.0 | 0.00 | 0.00 | 0.00 | 74 | 1013.5 |
| 20260504044605 | 5 | 337 | 0.0 | 0.0 | 0.00 | 0.00 | 0.00 | 73 | 1013.5 |
| 20260504044105 | 6 | 337 | 0.0 | 0.0 | 0.00 | 0.00 | 0.00 | 73 | 1013.4 |
| 20260504043604 | 6 | 337 | 0.0 | 0.0 | 0.00 | 0.00 | 0.00 | 73 | 1013.3 |
| 20260504042604 | 6 | 337 | 0.0 | 0.0 | 0.00 | 0.00 | 0.00 | 73 | 1013.2 |
| 20260504042104 | 6 | 337 | 0.0 | 0.0 | 0.00 | 0.00 | 0.00 | 72 | 1013.2 |
| 20260504041606 | 6 | 337 | 0.0 | 0.0 | 0.00 | 0.00 | 0.00 | 72 | 1013.1 |
| 20260504041106 | 6 | 337 | 0.0 | 0.0 | 0.00 | 0.00 | 0.00 | 72 | 1013.0 |
| 20260504040605 | 6 | 337 | 0.0 | 0.0 | 0.00 | 0.00 | 0.00 | 72 | 1013.1 |
| 20260504040105 | 6 | 337 | 0.0 | 0.0 | 0.00 | 0.00 | 0.00 | 72 | 1013.0 |
| 20260504035605 | 6 | 337 | 0.0 | 0.0 | 0.00 | 0.00 | 0.00 | 72 | 1013.0 |
| 20260504035105 | 6 | 337 | 0.0 | 0.0 | 0.00 | 0.00 | 0.00 | 72 | 1013.0 |
| 20260504034605 | 6 | 337 | 0.0 | 0.0 | 0.00 | 0.00 | 0.00 | 72 | 1013.0 |
| 20260504034105 | 6 | 337 | 0.0 | 0.0 | 0.00 | 0.00 | 0.00 | 72 | 1012.9 |
| 20260504033106 | 6 | 337 | 0.0 | 0.0 | 0.00 | 0.00 | 0.00 | 72 | 1012.9 |
| 20260504032605 | 6 | 337 | 0.0 | 0.0 | 0.00 | 0.00 | 0.00 | 71 | 1013.0 |
| 20260504031605 | 6 | 337 | 0.0 | 0.0 | 0.00 | 0.00 | 0.00 | 71 | 1013.1 |
| 20260504025604 | 6 | 337 | 0.0 | 0.0 | 0.00 | 0.00 | 0.00 | 70 | 1013.0 |
| 20260504025105 | 6 | 337 | 0.0 | 0.0 | 0.00 | 0.00 | 0.00 | 69 | 1013.0 |
| 20260504024606 | 7 | 337 | 0.0 | 0.0 | 0.00 | 0.00 | 0.00 | 69 | 1013.0 |
| 20260504024106 | 7 | 337 | 0.0 | 0.0 | 0.00 | 0.00 | 0.00 | 68 | 1013.1 |
| 20260504023605 | 7 | 337 | 0.0 | 0.0 | 0.00 | 0.00 | 0.00 | 68 | 1013.1 |
| 20260504023105 | 7 | 337 | 0.0 | 0.0 | 0.00 | 0.00 | 0.00 | 67 | 1013.1 |
| 20260504022605 | 7 | 337 | 0.0 | 0.0 | 0.00 | 0.00 | 0.00 | 67 | 1013.0 |
| 20260504022105 | 7 | 337 | 0.0 | 0.0 | 0.00 | 0.00 | 0.00 | 66 | 1013.1 |
| 20260504021605 | 7 | 337 | 0.0 | 0.0 | 0.00 | 0.00 | 0.00 | 65 | 1013.0 |
| 20260504021104 | 7 | 337 | 0.0 | 0.0 | 0.00 | 0.00 | 0.00 | 64 | 1013.0 |
| 20260504020606 | 8 | 337 | 0.0 | 0.0 | 0.00 | 0.00 | 0.00 | 63 | 1013.0 |
| 20260504020106 | 8 | 337 | 0.0 | 0.0 | 0.00 | 0.00 | 0.00 | 63 | 1013.1 |
| 20260504015605 | 8 | 337 | 0.0 | 0.0 | 0.00 | 0.00 | 0.00 | 62 | 1013.1 |
| 20260504015104 | 8 | 337 | 0.0 | 0.0 | 0.00 | 0.00 | 0.00 | 60 | 1013.0 |
| 20260504014605 | 8 | 337 | 0.0 | 0.0 | 0.00 | 0.00 | 0.00 | 59 | 1013.0 |
| 20260504014104 | 9 | 337 | 0.0 | 0.0 | 0.00 | 0.00 | 0.00 | 57 | 1013.0 |
| 20260504013604 | 9 | 337 | 0.0 | 0.0 | 0.00 | 0.00 | 0.00 | 57 | 1013.0 |
| 20260504013104 | 10 | 337 | 0.0 | 0.0 | 0.00 | 0.00 | 0.00 | 56 | 1012.9 |
| 20260504012106 | 10 | 337 | 0.0 | 0.0 | 0.00 | 0.00 | 0.00 | 54 | 1012.9 |
| 20260504011605 | 10 | 337 | 0.0 | 0.0 | 0.00 | 0.00 | 0.00 | 52 | 1012.8 |
| 20260504011105 | 10 | 337 | 0.0 | 0.0 | 0.00 | 0.00 | 0.00 | 51 | 1012.8 |
| 20260504010105 | 11 | 337 | 0.0 | 0.0 | 0.00 | 0.00 | 0.00 | 48 | 1012.7 |
| 20260504005105 | 12 | 337 | 0.0 | 0.0 | 0.00 | 0.00 | 0.00 | 46 | 1012.6 |
| 20260504004604 | 12 | 337 | 1.6 | 4.8 | 0.00 | 0.00 | 0.00 | 44 | 1012.6 |
| 20260504004105 | 12 | 355 | 1.6 | 3.2 | 0.00 | 0.00 | 0.00 | 44 | 1012.5 |
| 20260504003606 | 12 | 355 | 1.6 | 3.2 | 0.00 | 0.00 | 0.00 | 42 | 1012.5 |
| 20260504003105 | 12 | 339 | 1.6 | 4.8 | 0.00 | 0.00 | 0.00 | 42 | 1012.4 |
| 20260504002606 | 12 | 308 | 3.2 | 11.3 | 0.00 | 0.00 | 0.00 | 42 | 1012.3 |
| 20260504002105 | 12 | 354 | 4.8 | 8.0 | 0.00 | 0.00 | 0.00 | 41 | 1012.2 |
| 20260504001605 | 13 | 309 | 1.6 | 4.8 | 0.00 | 0.00 | 0.00 | 42 | 1012.1 |
| 20260504001105 | 13 | 349 | 0.0 | 3.2 | 0.00 | 0.00 | 0.00 | 40 | 1012.1 |
| 20260504000605 | 13 | 350 | 3.2 | 9.7 | 0.00 | 0.00 | 0.00 | 39 | 1012.0 |
| 20260504000105 | 13 | 356 | 1.6 | 4.8 | 0.00 | 0.00 | 0.00 | 39 | 1011.9 |
| 20260503235605 | 13 | 331 | 4.8 | 8.0 | 0.00 | 0.00 | 0.00 | 38 | 1011.9 |
| 20260503234104 | 13 | 309 | 3.2 | 9.7 | 0.00 | 0.00 | 0.00 | 38 | 1011.6 |
| 20260503233605 | 13 | 355 | 1.6 | 3.2 | 0.00 | 0.00 | 0.00 | 38 | 1011.4 |
| 20260503233105 | 13 | 354 | 3.2 | 4.8 | 0.00 | 0.00 | 0.00 | 38 | 1011.5 |
| 20260503232605 | 13 | 350 | 3.2 | 4.8 | 0.00 | 0.00 | 0.00 | 38 | 1011.4 |
| 20260503231604 | 14 | 3 | 3.2 | 11.3 | 0.00 | 0.00 | 0.00 | 37 | 1011.3 |
| 20260503231105 | 14 | 351 | 1.6 | 11.3 | 0.00 | 0.00 | 0.00 | 39 | 1011.2 |
| 20260503230605 | 14 | 348 | 3.2 | 9.7 | 0.00 | 0.00 | 0.00 | 37 | 1011.2 |
| 20260503230104 | 14 | 323 | 1.6 | 9.7 | 0.00 | 0.00 | 0.00 | 37 | 1011.2 |
| 20260503225604 | 14 | 45 | 4.8 | 11.3 | 0.00 | 0.00 | 0.00 | 35 | 1011.1 |
| 20260503225104 | 14 | 20 | 3.2 | 4.8 | 0.00 | 0.00 | 0.00 | 35 | 1011.1 |
| 20260503224106 | 14 | 8 | 8.0 | 16.1 | 0.00 | 0.00 | 0.00 | 35 | 1011.1 |
| 20260503223604 | 14 | 341 | 8.0 | 16.1 | 0.00 | 0.00 | 0.00 | 34 | 1011.1 |
| 20260503223104 | 14 | 0 | 8.0 | 24.1 | 0.00 | 0.00 | 0.00 | 34 | 1011.1 |
| 20260503222605 | 14 | 352 | 11.3 | 19.3 | 0.00 | 0.00 | 0.00 | 33 | 1011.1 |
| 20260503222104 | 15 | 328 | 3.2 | 16.1 | 0.00 | 0.00 | 0.00 | 33 | 1011.0 |
| 20260503221604 | 15 | 332 | 3.2 | 16.1 | 0.00 | 0.00 | 0.00 | 33 | 1010.9 |
| 20260503220605 | 15 | 3 | 6.4 | 16.1 | 0.00 | 0.00 | 0.00 | 32 | 1011.0 |
| 20260503220105 | 15 | 344 | 4.8 | 19.3 | 0.00 | 0.00 | 0.00 | 32 | 1011.0 |
| 20260503215605 | 15 | 29 | 4.8 | 24.1 | 0.00 | 0.00 | 0.00 | 31 | 1011.0 |
| 20260503215104 | 15 | 6 | 14.5 | 25.7 | 0.00 | 0.00 | 0.00 | 30 | 1010.9 |
| 20260503214605 | 15 | 341 | 9.7 | 19.3 | 0.00 | 0.00 | 0.00 | 30 | 1010.9 |
| 20260503214105 | 15 | 336 | 4.8 | 12.9 | 0.00 | 0.00 | 0.00 | 30 | 1010.9 |
| 20260503213605 | 15 | 357 | 9.7 | 24.1 | 0.00 | 0.00 | 0.00 | 31 | 1010.9 |
| 20260503213105 | 15 | 327 | 11.3 | 22.5 | 0.00 | 0.00 | 0.00 | 30 | 1010.9 |
| 20260503212605 | 15 | 345 | 9.7 | 27.4 | 0.00 | 0.00 | 0.00 | 29 | 1010.8 |
| 20260503212106 | 15 | 296 | 11.3 | 33.8 | 0.00 | 0.00 | 0.00 | 29 | 1010.7 |
| 20260503211604 | 15 | 300 | 4.8 | 19.3 | 0.00 | 0.00 | 0.00 | 29 | 1010.8 |
| 20260503211104 | 15 | 333 | 8.0 | 20.9 | 0.00 | 0.00 | 0.00 | 30 | 1010.9 |
| 20260503210114 | 15 | 290 | 9.7 | 25.7 | 0.00 | 0.00 | 0.00 | 30 | 1010.9 |
| 20260503205105 | 16 | 338 | 8.0 | 16.1 | 0.00 | 0.00 | 0.00 | 31 | 1011.0 |
| 20260503204604 | 15 | 24 | 6.4 | 25.7 | 0.00 | 0.00 | 0.00 | 31 | 1010.9 |
| 20260503204104 | 15 | 13 | 9.7 | 19.3 | 0.00 | 0.00 | 0.00 | 32 | 1010.9 |
| 20260503203604 | 15 | 18 | 14.5 | 29.0 | 0.00 | 0.00 | 0.00 | 31 | 1010.9 |
| 20260503203105 | 15 | 340 | 14.5 | 25.7 | 0.00 | 0.00 | 0.00 | 31 | 1011.1 |
| 20260503202605 | 15 | 6 | 8.0 | 22.5 | 0.00 | 0.00 | 0.00 | 34 | 1010.9 |
| 20260503200605 | 15 | 346 | 8.0 | 16.1 | 0.00 | 0.00 | 0.00 | 33 | 1011.0 |
| 20260503200104 | 15 | 357 | 8.0 | 24.1 | 0.00 | 0.00 | 0.00 | 34 | 1011.1 |
| 20260503195604 | 15 | 42 | 4.8 | 19.3 | 0.00 | 0.00 | 0.00 | 34 | 1011.0 |
| 20260503195104 | 15 | 340 | 11.3 | 29.0 | 0.00 | 0.00 | 0.00 | 34 | 1011.2 |
| 20260503194605 | 15 | 336 | 9.7 | 19.3 | 0.00 | 0.00 | 0.00 | 34 | 1011.2 |
| 20260503194105 | 15 | 10 | 4.8 | 14.5 | 0.00 | 0.00 | 0.00 | 37 | 1011.2 |
| 20260503193604 | 15 | 352 | 4.8 | 22.5 | 0.00 | 0.00 | 0.00 | 36 | 1011.3 |
| 20260503193104 | 15 | 341 | 11.3 | 27.4 | 0.00 | 0.00 | 0.00 | 34 | 1011.3 |
| 20260503192605 | 15 | 317 | 4.8 | 19.3 | 0.00 | 0.00 | 0.00 | 35 | 1011.4 |
| 20260503192104 | 14 | 332 | 8.0 | 33.8 | 0.00 | 0.00 | 0.00 | 35 | 1011.6 |
| 20260503191104 | 15 | 326 | 11.3 | 25.7 | 0.00 | 0.00 | 0.00 | 37 | 1011.6 |
| 20260503190604 | 15 | 16 | 11.3 | 25.7 | 0.00 | 0.00 | 0.00 | 36 | 1011.8 |
| 20260503190105 | 14 | 10 | 11.3 | 25.7 | 0.00 | 0.00 | 0.00 | 40 | 1011.7 |
| 20260503185605 | 13 | 5 | 11.3 | 24.1 | 0.00 | 0.00 | 0.00 | 38 | 1011.8 |
| 20260503185105 | 13 | 23 | 14.5 | 33.8 | 0.00 | 0.00 | 0.00 | 38 | 1011.9 |
| 20260503184606 | 12 | 350 | 4.8 | 16.1 | 0.00 | 0.00 | 0.00 | 39 | 1012.0 |
| 20260503184105 | 12 | 5 | 9.7 | 20.9 | 0.00 | 0.00 | 0.00 | 39 | 1012.0 |
| 20260503183606 | 12 | 50 | 8.0 | 24.1 | 0.00 | 0.00 | 0.00 | 39 | 1012.0 |
| 20260503183105 | 12 | 37 | 8.0 | 25.7 | 0.00 | 0.00 | 0.00 | 40 | 1012.2 |
| 20260503182605 | 12 | 35 | 11.3 | 32.2 | 0.00 | 0.00 | 0.00 | 39 | 1012.3 |
| 20260503181605 | 12 | 47 | 6.4 | 27.4 | 0.00 | 0.00 | 0.00 | 41 | 1012.4 |
| 20260503181105 | 12 | 5 | 11.3 | 24.1 | 0.00 | 0.00 | 0.00 | 39 | 1012.3 |
| 20260503180604 | 12 | 32 | 8.0 | 29.0 | 0.00 | 0.00 | 0.00 | 43 | 1012.4 |
| 20260503180105 | 12 | 51 | 14.5 | 25.7 | 0.00 | 0.00 | 0.00 | 40 | 1012.4 |
| 20260503175104 | 13 | 355 | 8.0 | 19.3 | 0.00 | 0.00 | 0.00 | 40 | 1012.5 |
| 20260503174105 | 12 | 324 | 6.4 | 29.0 | 0.00 | 0.00 | 0.00 | 42 | 1012.6 |
| 20260503173604 | 12 | 338 | 4.8 | 19.3 | 0.00 | 0.00 | 0.00 | 43 | 1012.7 |
| 20260503173105 | 12 | 22 | 11.3 | 20.9 | 0.00 | 0.00 | 0.00 | 43 | 1012.7 |
| 20260503172604 | 11 | 23 | 4.8 | 19.3 | 0.00 | 0.00 | 0.00 | 44 | 1012.7 |
| 20260503172105 | 12 | 333 | 8.0 | 20.9 | 0.00 | 0.00 | 0.00 | 43 | 1012.8 |
| 20260503171605 | 12 | 37 | 4.8 | 19.3 | 0.00 | 0.00 | 0.00 | 45 | 1012.8 |
| 20260503171104 | 11 | 62 | 8.0 | 14.5 | 0.00 | 0.00 | 0.00 | 47 | 1012.8 |
| 20260503170104 | 11 | 337 | 9.7 | 20.9 | 0.00 | 0.00 | 0.00 | 44 | 1012.9 |
| 20260503160105 | 11 | 357 | 6.4 | 14.5 | 0.00 | 0.00 | 0.00 | 44 | 1012.8 |
| 20260503150618 | 10 | 21 | 9.7 | 19.3 | 0.00 | 0.00 | 0.00 | 41 | 1012.9 |
| 20260503150106 | 10 | 331 | 8.0 | 22.5 | 0.00 | 0.00 | 0.00 | 46 | 1013.0 |
| 20260503140105 | 10 | 11 | 3.2 | 16.1 | 0.00 | 0.00 | 0.00 | 52 | 1013.0 |